sat.trackr.live / text

‹ back to catalog

STARLINK-5430

NORAD 54803 · 2022-175AX

PAYLOAD ACTIVE UNKNOWN

§ Identity

Operator
Country
US
Launch date
2022-12-17
Launch site
AFETR
Launch vehicle
Mass (kg)
RCS (m²)

Purposes: comms

External: N2YO · Heavens-Above · Gunter

§ Orbital elements

Epoch: 2026-09-20T13:25:27.879744Z

Period
93.85 min
Inclination
53.1585°
Eccentricity
0.0001182
Mean motion
15.34390090 rev/d
Perigee alt
461.9 km
Apogee alt
463.5 km
Semi-major
6,840.9 km
B*
1.6499e-5
RAAN
241.2093°
Arg perigee
88.1450°
Mean anomaly
271.9688°
Rev number
20,944

§ Raw data

STARLINK-54301 54803U 22175AX  26263.55935046  .00000181  00000+0  16499-4 0  99952 54803  53.1585 241.2093 0001182  88.1450 271.9688 15.34390090209442

JSON: /api/v1/satellites/54803 · /tle

For live sub-satellite position, see the globe view (requires WebGL).

§ Visibility from observer

Set your observer location to see the next 7 days of passes ≥ 10°. The values pass through the URL so the page stays shareable.

No JS? Fill the form by hand. The geolocation button needs JavaScript.